Weather History for KBZN - December, 2013

Change the Weather History Date:

Tuesday, December 3, 2013

  Actual Average Record
Temperature  
Mean Temperature 6 °F 23 °F  
Max Temperature 14 °F 35 °F 60 °F (1956)
Min Temperature -2 °F 12 °F -15 °F (1984)
Degree Days  
Heating Degree Days 59    
Month to date heating degree days 116  
Since 1 July heating degree days 2088  
Cooling Degree Days 0    
Month to date cooling degree days 0  
Year to date cooling degree days 284  
Moisture  
Dew Point -1 °F    
Average Humidity 73    
Maximum Humidity 83    
Minimum Humidity 63    
Precipitation  
Precipitation T in 0.03 in 0.52 in (1998)
Month to date precipitation 0.09 0.07  
Year to date precipitation 11.58 13.54  
Snow  
Snow 0.30 in 0.20 in 6.30 in (1948)
Month to date snowfall 0.3 0.7  
Since 1 July snowfall 0.8 8.1  
Snow Depth T in    
Sea Level Pressure  
Sea Level Pressure 30.07 in    
Wind  
Wind Speed 10 mph (NNW)    
Max Wind Speed 25 mph    
Max Gust Speed 32 mph    
Visibility 5 miles    
Events Snow    
T = Trace of Precipitation, MM = Missing Value Source: NWS Daily Summary

Daily Weather History Graph

Daily Weather History Graph

Search for Another Location

Airport or City:

Trip Planner

Search our weather history database for the weather conditions in past years. The results will help you decide how hot, cold, wet, or windy it might be!

Date:

Astronomy

Dec. 03, 2013 Rise Set
Actual Time 7:47 AM MST 4:41 PM MST
Civil Twilight 7:14 AM MST 5:14 PM MST
Nautical Twilight 6:36 AM MST 5:52 PM MST
Astronomical Twilight 6:00 AM MST 6:28 PM MST
Moon 8:19 AM MST (12/3) 5:49 PM MST (12/3)
Length of Visible Light 10h 00m
Length of Day
8h 53m
New Moon, 1% of the Moon is Illuminated
Dec 3
New Moon
Dec 9
First Quarter
Dec 17
Full
Dec 25
Last Quarter
Jan 1
New

Hourly Weather History & Observations

Time (MST) Temp. Windchill Dew Point Humidity Pressure Visibility Wind Dir Wind Speed Gust Speed Precip Events Conditions
12:56 AM 10.9 °F -7.0 °F 3.9 °F 73% 29.91 in 4.0 mi West 18.4 mph 26.5 mph 0.00 in Snow Light Snow
1:48 AM 12.2 °F -2.5 °F 8.6 °F 85% 29.79 in 1.8 mi NE 12.7 mph - 0.00 in Snow Light Snow
1:51 AM 12.2 °F -2.5 °F 8.6 °F 85% 29.80 in 1.2 mi ENE 12.7 mph - 0.00 in Snow Light Snow
1:56 AM 10.9 °F -5.9 °F 7.0 °F 84% 29.94 in 0.8 mi East 16.1 mph - 0.00 in Snow Light Snow
2:11 AM 10.4 °F -4.1 °F 5.0 °F 79% 29.84 in 1.0 mi East 11.5 mph - 0.00 in Snow Light Snow
2:32 AM 10.4 °F -2.4 °F 6.8 °F 85% 29.86 in 1.5 mi North 9.2 mph - 0.00 in Snow Light Snow
2:51 AM 10.4 °F 2.2 °F 5.0 °F 79% 29.87 in 1.5 mi North 4.6 mph - 0.00 in Snow Light Snow
2:56 AM 10.0 °F 1.8 °F 5.0 °F 80% 30.02 in 1.5 mi NNE 4.6 mph - 0.00 in Snow Light Snow
3:09 AM 10.4 °F 2.2 °F 5.0 °F 79% 29.88 in 1.8 mi NE 4.6 mph - 0.00 in Snow Light Snow
3:17 AM 10.4 °F -1.5 °F 5.0 °F 79% 29.89 in 2.5 mi NNE 8.1 mph - 0.00 in Snow Light Snow
3:36 AM 8.6 °F -3.7 °F -0.4 °F 67% 29.89 in 8.0 mi North 8.1 mph - 0.00 in Snow Light Snow
3:56 AM 8.1 °F -7.7 °F -0.9 °F 67% 30.06 in 10.0 mi NNW 12.7 mph - 0.00 in   Overcast
4:10 AM 8.6 °F -6.3 °F -2.2 °F 62% 29.89 in 10.0 mi NNW 11.5 mph - N/A   Overcast
4:56 AM 7.0 °F -9.8 °F -2.9 °F 64% 30.06 in 10.0 mi NNW 13.8 mph - N/A   Overcast
5:56 AM 7.0 °F -8.3 °F -2.9 °F 64% 30.09 in 10.0 mi NW 11.5 mph - N/A   Overcast
6:56 AM 7.0 °F -7.5 °F -4.0 °F 61% 30.12 in 10.0 mi NW 10.4 mph - N/A   Overcast
7:56 AM 7.0 °F -10.4 °F -2.9 °F 64% 30.14 in 10.0 mi NNW 15.0 mph - 0.00 in   Overcast
8:39 AM 6.8 °F -10.0 °F -2.2 °F 67% 29.98 in 2.5 mi NNW 13.8 mph - 0.00 in Snow Light Snow
8:56 AM 6.1 °F -12.2 °F -2.0 °F 69% 30.20 in 2.0 mi NNW 16.1 mph - 0.00 in Snow Light Snow
9:04 AM 6.8 °F -10.0 °F -0.4 °F 72% 29.99 in 1.2 mi NNW 13.8 mph - 0.00 in Snow Light Snow
9:16 AM 6.8 °F -10.7 °F -2.2 °F 67% 30.00 in 1.5 mi NNW 15.0 mph - 0.00 in Snow Light Snow
9:25 AM 6.8 °F -9.3 °F -2.2 °F 67% 30.00 in 3.0 mi NNW 12.7 mph - 0.00 in Snow Light Snow
9:41 AM 6.8 °F -10.0 °F -2.2 °F 67% 30.01 in 1.8 mi NNW 13.8 mph - 0.00 in Snow Light Snow
9:56 AM 6.1 °F -10.9 °F -2.0 °F 69% 30.23 in 1.8 mi NNW 13.8 mph - 0.00 in Snow Light Snow
10:16 AM 6.8 °F -8.6 °F -2.2 °F 67% 30.01 in 3.0 mi NNW 11.5 mph - 0.00 in Snow Light Snow
10:42 AM 6.8 °F -6.9 °F -2.2 °F 67% 30.02 in 3.0 mi NNW 9.2 mph - 0.00 in Snow Light Snow
10:56 AM 7.0 °F -8.3 °F -0.9 °F 70% 30.24 in 4.0 mi NNW 11.5 mph - 0.00 in Snow Light Snow
11:06 AM 6.8 °F -9.3 °F -2.2 °F 67% 30.02 in 2.0 mi NNW 12.7 mph - 0.00 in Snow Light Snow
11:14 AM 6.8 °F -8.6 °F -2.2 °F 67% 30.01 in 2.5 mi North 11.5 mph - 0.00 in Snow Light Snow
11:56 AM 7.0 °F -9.8 °F -2.0 °F 67% 30.25 in 2.5 mi NNW 13.8 mph - 0.00 in Snow Light Snow
12:48 PM 6.8 °F -6.9 °F -2.2 °F 67% 30.00 in 1.8 mi NNW 9.2 mph - 0.00 in Snow Light Snow
12:56 PM 7.0 °F -6.6 °F -0.9 °F 70% 30.24 in 2.5 mi NNW 9.2 mph - 0.00 in   Haze
1:03 PM 6.8 °F -7.8 °F -2.2 °F 67% 30.00 in 3.0 mi NW 10.4 mph - 0.00 in Snow Light Snow
1:21 PM 6.8 °F -7.8 °F -0.4 °F 72% 30.00 in 3.0 mi NW 10.4 mph - 0.00 in Snow Light Snow
1:29 PM 6.8 °F -7.8 °F -0.4 °F 72% 29.99 in 3.0 mi NW 10.4 mph - 0.00 in Snow Light Snow
1:36 PM 6.8 °F -7.8 °F -2.2 °F 67% 29.99 in 2.5 mi NW 10.4 mph - 0.00 in Snow Light Snow
1:44 PM 6.8 °F -8.6 °F -2.2 °F 67% 29.99 in 4.0 mi WNW 11.5 mph - 0.00 in   Haze
1:56 PM 7.0 °F -7.5 °F -2.0 °F 67% 30.23 in 6.0 mi NW 10.4 mph - 0.00 in   Haze
2:28 PM 6.8 °F -8.6 °F -2.2 °F 67% 30.00 in 5.0 mi NW 11.5 mph - N/A   Haze
2:56 PM 6.1 °F -7.8 °F -2.0 °F 69% 30.25 in 4.0 mi NW 9.2 mph - N/A   Haze
3:28 PM 5.0 °F -5.6 °F -4.0 °F 66% 30.01 in 8.0 mi WNW 5.8 mph - N/A   Overcast
3:56 PM 6.1 °F -6.8 °F -4.0 °F 63% 30.27 in 9.0 mi NNW 8.1 mph - N/A   Overcast
4:26 PM 5.0 °F -5.6 °F -4.0 °F 66% 30.02 in 10.0 mi NW 5.8 mph - N/A   Overcast
4:56 PM 5.0 °F -6.9 °F -5.1 °F 63% 30.29 in 10.0 mi NW 6.9 mph - N/A   Overcast
5:56 PM 3.9 °F -9.4 °F -5.1 °F 66% 30.30 in 10.0 mi WNW 8.1 mph - N/A   Overcast
6:56 PM 3.9 °F -6.9 °F -4.0 °F 70% 30.31 in 10.0 mi WSW 5.8 mph - N/A   Mostly Cloudy
7:56 PM 3.0 °F -9.3 °F -5.1 °F 69% 30.32 in 10.0 mi South 6.9 mph - N/A   Mostly Cloudy
8:56 PM 1.9 °F -10.6 °F -4.0 °F 76% 30.33 in 8.0 mi SSE 6.9 mph - N/A   Overcast
9:48 PM 1.4 °F -11.3 °F -4.0 °F 78% 30.07 in 5.0 mi ESE 6.9 mph - N/A   Haze
9:56 PM 1.9 °F -10.6 °F -4.0 °F 76% 30.34 in 6.0 mi ESE 6.9 mph - N/A   Haze
10:44 PM -0.4 °F - -5.8 °F 78% 30.07 in 9.0 mi Calm Calm - N/A   Overcast
10:56 PM -0.0 °F - -6.0 °F 76% 30.35 in 10.0 mi Calm Calm - N/A   Overcast
11:05 PM -0.4 °F -8.3 °F -5.8 °F 78% 30.07 in 10.0 mi NNE 3.5 mph - N/A   Overcast
11:37 PM -2.2 °F - -7.6 °F 78% 30.07 in 5.0 mi Calm Calm - 0.00 in Snow Light Snow
11:56 PM -0.0 °F - -6.0 °F 76% 30.35 in 10.0 mi Calm Calm - 0.00 in   Mostly Cloudy